Weather History for Lakeland Region, FL

Change the Weather History Date:

Saturday, December 29, 2012

  Actual Average Record
Temperature  
Mean Temperature 63 °F -  
Max Temperature 75 °F 67 °F 82 °F (2007)
Min Temperature 51 °F 48 °F 28 °F (2010)
Degree Days  
Heating Degree Days 2    
Growing Degree Days 13 (Base 50)    
Moisture  
Dew Point 61 °F    
Average Humidity 87    
Maximum Humidity 100    
Minimum Humidity 52    
Precipitation  
Precipitation 0.00 in - - ()
Sea Level Pressure  
Sea Level Pressure 29.99 in    
Wind  
Wind Speed 11 mph (SW)    
Max Wind Speed 18 mph    
Max Gust Speed 24 mph    
Visibility 9 miles    
Events      
Averages and records for this station are not official NWS values.
T = Trace of Precipitation, MM = Missing Value Source: NWS Daily Summary

Daily Weather History Graph

Daily Weather History Graph

Search for Another Location

Airport:

Trip Planner

Search our weather history database for the weather conditions in past years. The results will help you decide how hot, cold, wet, or windy it might be!

Date:

Astronomy

Dec. 29, 2012 Rise Set
Actual Time 7:18 AM EST 5:42 PM EST
Civil Twilight 6:53 AM EST 6:07 PM EST
Nautical Twilight 6:23 AM EST 6:37 PM EST
Astronomical Twilight 5:55 AM EST 7:05 PM EST
Moon 7:05 PM EST (12/29) 7:58 AM EST (12/29)
Length of Visible Light 11h 14m
Length of Day
10h 23m
Full, 98% of the Moon is Illuminated
Dec 29
Full
Jan 4
Last Quarter
Jan 11
New
Jan 18
First Quarter
Jan 26
Full

Hourly Weather History & Observations

Time (EST) Temp. Dew Point Humidity Pressure Visibility Wind Dir Wind Speed Gust Speed Precip Events Conditions
12:15 AM 64.4 °F 64.4 °F 100% 29.94 in 4.0 mi SSE 6.9 mph - N/A   Overcast
12:35 AM 64.4 °F 64.4 °F 100% 29.93 in 3.0 mi SSE 8.1 mph - N/A   Drizzle
12:55 AM 66.2 °F 64.4 °F 94% 29.92 in 3.0 mi SSE 10.4 mph - N/A   Overcast
1:15 AM 66.2 °F 66.2 °F 100% 29.91 in 5.0 mi South 11.5 mph - N/A   Overcast
1:35 AM 68.0 °F 66.2 °F 94% 29.91 in 7.0 mi South 10.4 mph - N/A   Overcast
1:55 AM 68.0 °F 68.0 °F 100% 29.91 in 7.0 mi South 9.2 mph 18.4 mph N/A   Overcast
2:15 AM 68.0 °F 68.0 °F 100% 29.91 in 7.0 mi South 12.7 mph - N/A   Overcast
2:35 AM 68.0 °F 68.0 °F 100% 29.90 in 7.0 mi South 11.5 mph - N/A   Overcast
2:55 AM 69.8 °F 68.0 °F 94% 29.90 in 10.0 mi South 11.5 mph 18.4 mph N/A   Overcast
3:15 AM 69.8 °F 68.0 °F 94% 29.90 in 7.0 mi South 11.5 mph - N/A   Overcast
3:35 AM 69.8 °F 68.0 °F 94% 29.90 in 10.0 mi South 11.5 mph - N/A   Mostly Cloudy
3:55 AM 69.8 °F 68.0 °F 94% 29.90 in 10.0 mi South 12.7 mph - N/A   Overcast
4:15 AM 69.8 °F 68.0 °F 94% 29.89 in 10.0 mi South 12.7 mph - N/A   Overcast
4:35 AM 69.8 °F 68.0 °F 94% 29.90 in 7.0 mi SSW 12.7 mph 18.4 mph N/A   Overcast
4:55 AM 69.8 °F 68.0 °F 94% 29.90 in 7.0 mi SSW 12.7 mph - N/A   Overcast
5:15 AM 69.8 °F 68.0 °F 94% 29.91 in 7.0 mi SSW 15.0 mph 24.2 mph N/A   Overcast
5:35 AM 69.8 °F 68.0 °F 94% 29.91 in 7.0 mi SSW 12.7 mph 23.0 mph N/A   Overcast
5:50 AM 71.6 °F 69.8 °F 94% 29.92 in 7.0 mi SSW 12.7 mph 23.0 mph N/A   Overcast
6:50 AM 71.6 °F 69.8 °F 94% 29.94 in 7.0 mi SSW 8.1 mph 16.1 mph N/A   Overcast
7:45 AM 71.6 °F 69.8 °F 94% 29.95 in 7.0 mi SSW 11.5 mph 17.3 mph N/A   Overcast
8:50 AM 71.6 °F 69.8 °F 94% 29.97 in 7.0 mi SW 13.8 mph 20.7 mph N/A   Mostly Cloudy
9:50 AM 71.6 °F 69.8 °F 94% 29.99 in 7.0 mi SW 15.0 mph 24.2 mph N/A   Overcast
10:52 AM 71.6 °F 69.8 °F 94% 29.99 in 7.0 mi West 12.7 mph 18.4 mph N/A   Overcast
11:50 AM 71.6 °F 68.0 °F 88% 29.98 in 7.0 mi West 11.5 mph 17.3 mph N/A   Mostly Cloudy
12:50 PM 73.4 °F 64.4 °F 73% 29.96 in 10.0 mi West 12.7 mph - N/A   Mostly Cloudy
1:50 PM 75.2 °F 60.8 °F 61% 29.95 in 10.0 mi WNW 18.4 mph 23.0 mph N/A   Scattered Clouds
3:54 PM 69.8 °F 57.2 °F 64% 29.98 in 12.0 mi West 16.1 mph 20.7 mph N/A   Scattered Clouds
4:52 PM 66.2 °F 48.2 °F 52% 29.99 in 15.0 mi WNW 17.3 mph - N/A   Clear
5:55 PM 62.6 °F 48.2 °F 59% 30.03 in 15.0 mi WNW 13.8 mph - N/A   Partly Cloudy
7:55 PM 55.4 °F 50.0 °F 82% 30.09 in 15.0 mi WNW 12.7 mph - N/A   Clear
8:50 PM 55.4 °F 48.2 °F 77% 30.12 in 12.0 mi NW 9.2 mph - N/A   Clear
9:50 PM 53.6 °F 48.2 °F 82% 30.14 in 12.0 mi WNW 4.6 mph - N/A   Clear
9:55 PM 51.8 °F 46.4 °F 82% 30.14 in 10.0 mi WNW 4.6 mph - N/A   Clear
10:15 PM 51.8 °F 46.4 °F 82% 30.15 in 10.0 mi WNW 6.9 mph - N/A   Clear
10:35 PM 51.8 °F 46.4 °F 82% 30.16 in 10.0 mi WNW 6.9 mph - N/A   Clear
10:55 PM 51.8 °F 46.4 °F 82% 30.16 in 10.0 mi NW 8.1 mph - N/A   Clear
11:15 PM 51.8 °F 46.4 °F 82% 30.16 in 10.0 mi NW 8.1 mph - N/A   Clear
11:35 PM 51.8 °F 46.4 °F 82% 30.16 in 10.0 mi NW 10.4 mph 17.3 mph N/A   Clear
11:55 PM 51.8 °F 44.6 °F 76% 30.17 in 10.0 mi NW 10.4 mph - N/A   Clear